Temp
51 51 49 51 51 53 52 52 55 55 55 55 55 55 56 56 56 56 56 56 56 57 57 58 57 57 55
52 50 47 51 52 51 48 50 51 53 54 54 54 54 55 55 55 55 55 55 55 56 55 55 56 55 54
50 47 47 47 46 46 46 46 47 50 52 53 53 53 54 54 53 53 52 53 53 52 52 52 53 53 54
47 44 44 45 45 42 41 42 43 45 47 48 52 52 52 52 51 50 50 50 50 50 50 50 51 52 52
43 42 41 40 40 42 41 39 39 40 39 39 44 44 48 50 49 48 48 48 49 49 49 49 49 50 50
41 40 41 40 39 38 36 35 35 39 37 37 38 41 42 46 45 48 48 48 47 48 48 48 48 48 48
41 41 40 41 39 36 36 36 37 35 36 35 37 37 40 44 44 46 47 47 47 47 48 48 48 47 47
43 42 40 40 39 38 37 33 33 33 36 34 34 36 39 44 41 45 47 47 47 47 47 47 47 47 46
42 42 43 42 39 36 34 34 32 33 35 35 32 33 36 40 42 42 47 46 46 46 46 46 46 46 46
39 38 37 38 38 37 36 33 33 32 34 33 31 34 34 36 37 39 45 45 44 45 45 46 45 46 44
38 35 35 35 34 34 33 33 33 32 34 34 32 32 32 32 34 36 37 38 40 40 45 46 45 43 42
36 34 33 33 32 31 31 32 32 32 36 32 31 32 31 30 31 31 33 35 36 37 38 39 41 42 42
34 33 33 32 30 30 31 31 30 31 31 30 31 29 31 31 30 30 30 32 33 33 34 35 36 38 37
34 34 32 30 30 30 30 30 30 31 30 30 30 30 29 30 30 29 31 29 30 30 32 33 34 35 36
32 32 31 30 30 29 29 29 29 29 30 31 31 30 31 29 28 30 29 28 29 29 29 30 32 34 35
32 32 31 30 29 28 28 28 28 29 29 30 30 29 29 31 32 29 28 28 29 29 29 28 29 33 34
32 31 31 30 30 28 28 28 27 28 29 29 28 27 25 26 31 34 29 28 29 28 30 29 29 33 35
MSLP
1023.22 1023.35 1023.45 1023.44 1023.58 1023.85 1023.75 1023.79 1023.98 1023.92 1024.18 1024.11 1024.12 1024.02 1024.21 1024.31 1024.45 1024.79 1024.97 1025.12 1025.35 1025.69 1025.47 1025.83 1026.01 1026.43 1026.93
1023.06 1023.40 1023.64 1023.54 1023.50 1023.59 1023.89 1023.95 1023.95 1023.83 1024.08 1024.10 1024.22 1024.20 1024.35 1024.66 1024.48 1024.89 1025.09 1025.03 1025.66 1025.77 1025.89 1026.13 1026.36 1026.66 1027.00
1023.11 1023.30 1023.42 1023.64 1023.79 1024.01 1023.87 1024.13 1024.18 1024.07 1024.00 1024.01 1024.07 1024.27 1024.64 1024.67 1024.84 1025.37 1025.55 1025.44 1025.90 1026.00 1026.30 1026.59 1026.68 1026.85 1027.02
1023.27 1023.38 1023.58 1023.68 1023.76 1023.81 1024.18 1024.38 1024.51 1024.35 1024.25 1024.25 1024.26 1024.48 1024.69 1024.96 1025.25 1025.82 1025.64 1025.72 1026.16 1026.26 1026.43 1026.88 1026.98 1027.01 1027.12
1023.22 1023.48 1023.66 1023.78 1023.59 1023.64 1023.85 1024.17 1024.49 1024.71 1024.84 1024.91 1024.88 1025.18 1024.96 1025.07 1025.49 1025.97 1025.91 1025.90 1026.24 1026.30 1026.53 1026.81 1027.18 1027.24 1027.39
1023.56 1023.38 1023.33 1023.34 1023.38 1023.53 1023.97 1024.44 1024.71 1024.32 1024.68 1024.94 1025.26 1025.20 1025.29 1025.42 1025.69 1025.79 1025.82 1026.10 1026.22 1026.34 1026.46 1026.70 1027.11 1027.33 1027.48
1023.46 1023.42 1023.29 1023.15 1023.24 1023.51 1023.69 1023.92 1024.07 1024.33 1024.53 1024.89 1025.29 1025.31 1025.36 1025.39 1025.67 1025.63 1025.67 1025.92 1026.15 1026.31 1026.35 1026.56 1026.95 1027.26 1027.52
1023.49 1023.52 1023.51 1023.24 1023.25 1023.26 1023.43 1023.87 1024.33 1024.57 1024.58 1024.83 1025.20 1025.20 1025.34 1025.31 1025.57 1025.52 1025.51 1025.66 1025.97 1026.19 1026.26 1026.42 1026.75 1027.12 1027.45
1023.73 1023.70 1023.30 1023.15 1023.27 1023.47 1023.67 1024.07 1024.38 1024.50 1024.72 1024.70 1025.13 1025.16 1025.32 1025.26 1025.43 1025.43 1025.31 1025.57 1025.88 1026.17 1026.29 1026.37 1026.65 1026.97 1027.35
1023.90 1023.92 1023.85 1023.68 1023.53 1023.52 1023.67 1023.95 1024.21 1024.40 1024.27 1024.63 1024.97 1025.07 1025.25 1025.47 1025.56 1025.58 1025.31 1025.54 1025.80 1026.05 1026.05 1026.11 1026.39 1026.72 1027.24
1023.84 1024.08 1024.02 1024.03 1024.01 1023.96 1023.86 1024.05 1024.22 1024.15 1024.17 1024.44 1024.87 1025.12 1025.28 1025.55 1025.72 1025.83 1025.86 1025.90 1026.06 1026.13 1025.82 1025.85 1026.12 1026.69 1027.02
1023.81 1024.01 1024.05 1024.13 1024.23 1024.29 1024.32 1024.25 1024.32 1024.33 1024.03 1024.60 1024.79 1024.91 1025.11 1025.52 1025.56 1025.95 1026.08 1026.15 1026.29 1026.27 1026.33 1026.39 1026.56 1026.70 1026.89
1023.76 1023.94 1024.12 1024.27 1024.64 1024.67 1024.63 1024.67 1024.65 1024.71 1024.78 1024.79 1024.86 1025.24 1025.21 1025.15 1025.35 1025.65 1025.95 1026.05 1026.29 1026.34 1026.51 1026.57 1026.56 1026.70 1026.83
1023.57 1023.95 1024.40 1024.55 1024.55 1024.73 1024.64 1024.64 1024.63 1024.75 1024.95 1025.02 1024.97 1025.11 1025.22 1025.32 1025.39 1025.48 1025.58 1025.67 1026.00 1026.25 1026.38 1026.53 1026.58 1026.60 1026.53
1023.55 1023.76 1024.02 1024.22 1024.26 1024.50 1024.53 1024.50 1024.51 1024.52 1024.64 1024.82 1025.02 1025.09 1025.11 1025.21 1025.15 1025.11 1025.28 1025.54 1025.67 1026.01 1026.40 1026.17 1025.94 1025.93 1025.95
1023.15 1023.40 1023.56 1023.66 1023.80 1024.16 1024.32 1024.15 1024.22 1024.27 1024.39 1024.57 1024.81 1024.95 1024.87 1024.38 1024.41 1024.55 1024.95 1025.14 1025.37 1025.70 1025.88 1025.82 1025.33 1025.04 1025.15
1022.63 1022.83 1023.06 1023.31 1023.39 1023.57 1023.75 1023.72 1023.76 1023.89 1024.05 1024.31 1024.49 1024.54 1024.69 1024.16 1023.80 1024.02 1024.28 1024.65 1024.91 1025.11 1025.23 1025.27 1024.88 1024.48 1024.46
Wind_Speed
1 0 3 5 4 4 3 3 3 6 5 7 7 7 7 9 10 9 10 10 10 9 10 10 10 10 8
1 3 3 4 5 6 3 1 3 4 6 6 6 7 6 7 9 9 10 11 8 9 8 8 9 9 7
3 1 3 2 2 1 2 2 1 3 6 7 7 7 8 9 10 9 8 9 10 9 7 6 7 8 7
2 2 2 1 2 2 3 1 1 1 1 1 6 8 8 8 8 8 9 9 9 8 8 6 6 8 8
2 1 2 2 3 2 4 2 2 1 1 1 1 1 2 4 6 8 7 8 7 8 9 9 8 8 8
2 3 3 3 2 2 3 3 3 4 3 3 1 3 2 3 3 7 9 8 7 8 10 10 10 9 8
4 2 3 1 2 3 4 3 2 2 2 2 2 2 2 3 6 8 10 10 9 9 10 11 11 9 9
2 5 4 4 3 2 3 4 2 1 0 2 2 3 2 3 4 8 11 10 10 10 11 11 11 10 10
6 7 6 5 2 2 2 2 2 2 4 2 2 2 2 3 3 7 12 11 10 10 10 11 11 11 8
1 3 5 5 6 1 2 2 2 1 3 3 3 3 2 1 1 1 4 9 9 9 11 12 13 6 5
0 1 1 3 3 3 3 0 1 1 2 3 3 3 1 2 1 2 2 2 2 1 6 9 11 7 6
1 1 1 1 2 3 4 2 1 2 4 2 2 3 3 3 3 2 3 3 2 3 3 3 5 10 10
2 1 1 1 2 1 3 4 5 4 2 2 1 3 2 1 2 3 4 4 4 4 4 5 5 4 5
2 1 1 2 2 1 1 1 1 1 2 2 3 4 2 2 2 3 4 3 5 4 4 4 4 5 6
3 3 3 3 3 3 2 2 2 1 2 2 2 1 2 3 3 5 4 3 4 4 4 4 6 7 7
4 4 5 4 4 3 3 4 4 3 3 2 3 2 1 6 13 5 4 5 4 6 5 4 6 6 7
5 6 5 5 6 5 5 5 5 5 4 3 4 3 4 3 1 15 6 4 4 6 6 7 4 2 3
Wind_Direction
348 208 216 209 198 208 180 167 172 156 158 145 139 140 147 140 140 140 141 142 143 155 143 145 137 136 139
228 223 237 236 221 202 184 185 182 178 174 159 162 153 151 158 136 147 147 139 153 144 134 141 148 148 151
271 210 221 198 174 215 191 169 217 203 191 181 167 166 170 140 133 141 137 135 137 130 131 149 164 158 160
248 242 244 202 195 178 206 203 187 15 106 140 166 154 154 155 149 153 145 145 154 149 147 160 164 166 164
291 245 231 217 212 190 208 138 187 169 130 51 84 106 105 155 156 164 166 163 176 173 169 166 176 171 163
255 239 247 222 200 192 139 149 225 182 159 177 178 189 170 185 196 199 191 193 192 199 185 175 178 175 174
279 273 277 258 196 190 189 173 198 160 111 167 182 207 183 201 223 219 212 209 206 204 193 184 179 182 177
327 306 282 288 223 207 172 117 83 106 217 193 158 196 182 202 226 230 211 202 201 201 195 189 192 191 185
45 25 44 57 117 117 130 141 184 196 196 166 167 136 194 198 215 295 202 189 193 206 207 201 202 202 200
28 27 31 38 43 37 176 174 120 215 186 166 154 170 183 158 203 326 199 190 206 218 213 201 204 188 186
75 325 25 32 33 27 43 48 183 258 181 130 173 162 61 123 180 206 212 152 174 308 199 185 182 181 201
260 285 320 359 36 39 32 48 21 283 174 139 155 180 158 160 186 177 213 215 214 204 187 147 200 208 209
252 270 268 41 123 92 79 76 71 56 62 84 136 162 199 178 160 186 163 205 206 201 200 204 208 210 217
235 236 153 183 196 196 200 128 137 127 80 66 128 159 171 210 195 183 208 202 188 201 209 221 221 227 231
211 213 217 204 204 189 203 172 225 195 211 182 161 184 247 194 216 219 202 213 194 177 193 231 232 230 230
221 225 230 214 209 195 209 211 218 215 220 194 191 213 262 236 213 211 213 227 210 204 215 240 263 237 226
223 225 223 225 219 212 213 216 223 225 224 191 191 193 226 253 171 207 211 193 195 204 209 213 244 239 212